FW6892 Weather Reports


time (UTC)temp
C
wind
direction
speed
KPH
gust
KPH
rain 1hr
cm
rain 24hr
cm
rain mn
cm
humidity
%
barometer
mb
20260508020508 8 342 3.2 4.8 0.00 0.00 0.00 57 1011.5
20260508020008 8 329 4.8 4.8 0.00 0.00 0.00 57 1011.5
20260508015508 8 345 0.0 3.2 0.00 0.00 0.00 57 1011.5
20260508014508 8 7 0.0 0.0 0.00 0.00 0.00 57 1011.5
20260508014008 8 344 1.6 4.8 0.00 0.00 0.00 56 1011.5
20260508013508 8 35 3.2 4.8 0.00 0.00 0.00 56 1011.5
20260508013008 8 10 3.2 4.8 0.00 0.00 0.00 56 1011.5
20260508012508 8 30 6.4 6.4 0.00 0.00 0.00 56 1011.5
20260508012007 8 26 4.8 4.8 0.00 0.00 0.00 57 1011.1
20260508011508 8 35 0.0 3.2 0.00 0.00 0.00 56 1011.5
20260508011007 9 352 3.2 4.8 0.00 0.00 0.00 56 1011.5
20260508010508 9 33 3.2 4.8 0.00 0.00 0.00 55 1011.1
20260508010008 9 36 0.0 1.6 0.00 0.00 0.00 55 1011.1
20260508005507 9 338 0.0 0.0 0.00 0.00 0.00 54 1011.1
20260508005008 9 2 4.8 6.4 0.00 0.00 0.00 53 1011.1
20260508004508 9 327 0.0 1.6 0.00 0.00 0.00 53 1011.1
20260508004007 10 24 3.2 4.8 0.00 0.00 0.00 52 1011.1
20260508003508 10 4 0.0 3.2 0.00 0.00 0.00 52 1010.8
20260508003008 10 2 3.2 6.4 0.00 0.00 0.00 51 1010.8
20260508002507 10 0 4.8 6.4 0.00 0.00 0.00 51 1010.8
20260508002007 10 7 6.4 8.0 0.00 0.00 0.00 50 1010.8
20260508001508 10 351 6.4 6.4 0.00 0.00 0.00 50 1010.8
20260508001007 10 347 3.2 6.4 0.00 0.00 0.00 49 1010.8
20260508000508 10 319 3.2 6.4 0.00 0.00 0.00 48 1010.8
20260508000008 10 289 4.8 6.4 0.00 0.00 0.00 47 1010.8
20260507235507 10 327 4.8 6.4 0.00 0.00 0.00 47 1010.8
20260507235008 10 314 6.4 8.0 0.00 0.00 0.00 47 1010.8
20260507234008 11 315 4.8 4.8 0.00 0.00 0.00 46 1010.8
20260507233008 11 303 14.5 14.5 0.00 0.00 0.00 45 1010.4
20260507232507 11 267 6.4 20.9 0.00 0.00 0.00 45 1010.4
20260507231508 11 325 11.3 16.1 0.00 0.00 0.00 44 1010.4
20260507230508 11 310 6.4 17.7 0.00 0.00 0.00 43 1010.4
20260507230008 11 351 14.5 14.5 0.00 0.00 0.00 43 1010.4
20260507225508 11 330 4.8 12.9 0.00 0.00 0.00 43 1010.4
20260507225007 11 335 6.4 16.1 0.00 0.00 0.00 43 1010.4
20260507224508 11 304 8.0 20.9 0.00 0.00 0.00 44 1010.4
20260507224008 11 299 4.8 19.3 0.00 0.00 0.00 46 1010.4
20260507223508 11 359 12.9 16.1 0.00 0.00 0.00 47 1010.4
20260507223008 11 334 6.4 16.1 0.00 0.00 0.00 48 1010.4
20260507222509 11 359 11.3 11.3 0.00 0.00 0.00 51 1010.4
20260507222008 11 18 4.8 9.7 0.00 0.00 0.00 51 1010.4
20260507221508 11 358 8.0 9.7 0.00 0.00 0.00 50 1010.4
20260507221008 11 354 8.0 11.3 0.00 0.00 0.00 49 1010.4
20260507220509 11 357 11.3 24.1 0.00 0.00 0.00 47 1010.4
20260507220008 12 275 9.7 9.7 0.00 0.00 0.00 46 1010.4
20260507215508 12 17 6.4 11.3 0.00 0.00 0.00 46 1010.4
20260507215008 12 286 9.7 16.1 0.00 0.00 0.00 44 1010.4
20260507214508 12 317 12.9 12.9 0.00 0.00 0.00 44 1010.4
20260507213508 12 326 9.7 14.5 0.00 0.00 0.00 44 1010.1
20260507213008 13 277 12.9 16.1 0.00 0.00 0.00 44 1010.1
20260507212507 12 357 9.7 16.1 0.00 0.00 0.00 43 1010.1
20260507212007 12 345 14.5 17.7 0.00 0.00 0.00 43 1010.1
20260507211508 12 252 6.4 22.5 0.00 0.00 0.00 43 1010.1
20260507211009 12 300 12.9 12.9 0.00 0.00 0.00 44 1009.8
20260507210008 12 310 12.9 19.3 0.00 0.00 0.00 45 1009.8
20260507205508 12 298 16.1 16.1 0.00 0.00 0.00 45 1009.8
20260507205008 12 279 12.9 12.9 0.00 0.00 0.00 44 1009.8
20260507204508 12 317 11.3 20.9 0.00 0.00 0.00 43 1009.8
20260507204008 12 330 9.7 20.9 0.00 0.00 0.00 42 1010.1
20260507203507 13 281 11.3 20.9 0.00 0.00 0.00 40 1009.8
20260507203008 13 311 25.7 25.7 0.00 0.00 0.00 40 1009.8
20260507202508 13 322 14.5 22.5 0.00 0.00 0.00 39 1009.8
20260507200508 13 321 12.9 16.1 0.00 0.00 0.00 41 1009.8
20260507200008 13 336 11.3 24.1 0.00 0.00 0.00 42 1009.8
20260507195508 13 334 16.1 19.3 0.00 0.00 0.00 43 1009.8
20260507195007 13 358 12.9 27.4 0.00 0.00 0.00 41 1009.8
20260507194508 13 343 11.3 17.7 0.00 0.00 0.00 40 1009.8
20260507194009 13 320 12.9 17.7 0.00 0.00 0.00 42 1010.1
20260507193507 13 308 11.3 25.7 0.00 0.00 0.00 44 1009.8
20260507193009 12 238 14.5 20.9 0.00 0.00 0.00 44 1009.8
20260507192508 11 350 14.5 19.3 0.00 0.00 0.00 46 1009.8
20260507191007 11 310 16.1 16.1 0.00 0.00 0.00 46 1010.1
20260507190508 11 248 20.9 35.4 0.00 0.00 0.00 46 1010.1
20260507190008 11 311 11.3 32.2 0.00 0.00 0.00 46 1010.1
20260507185509 11 302 24.1 24.1 0.00 0.00 0.00 45 1009.8
20260507185008 11 290 14.5 24.1 0.00 0.00 0.00 44 1010.1
20260507184508 12 321 12.9 14.5 0.00 0.00 0.00 44 1010.1
20260507184008 12 297 16.1 20.9 0.00 0.00 0.00 43 1010.1
20260507183508 12 339 16.1 20.9 0.00 0.00 0.00 46 1009.8
20260507183008 11 224 17.7 20.9 0.00 0.00 0.00 45 1010.1
20260507182508 11 297 22.5 25.7 0.00 0.00 0.00 46 1010.1
20260507181507 11 338 16.1 16.1 0.00 0.00 0.00 45 1009.8
20260507181010 11 334 14.5 19.3 0.00 0.00 0.00 44 1010.1
20260507180508 12 274 11.3 17.7 0.00 0.00 0.00 45 1009.8
20260507180012 11 19 14.5 16.1 0.00 0.00 0.00 45 1009.8
20260507175508 11 307 24.1 24.1 0.00 0.00 0.00 45 1009.8
20260507175008 11 328 16.1 19.3 0.00 0.00 0.00 46 1009.8
20260507174508 11 305 6.4 14.5 0.00 0.00 0.00 46 1009.4
20260507174008 12 302 14.5 24.1 0.00 0.00 0.00 45 1009.8
20260507173508 12 271 16.1 20.9 0.00 0.00 0.00 45 1009.8
20260507172508 11 253 24.1 24.1 0.00 0.00 0.00 45 1009.8
20260507172008 11 284 11.3 17.7 0.00 0.00 0.00 44 1009.8
20260507171508 11 144 14.5 19.3 0.00 0.00 0.00 46 1009.4
20260507171008 12 344 6.4 17.7 0.00 0.00 0.00 44 1009.8
20260507170509 12 275 16.1 17.7 0.00 0.00 0.00 44 1009.8
20260507170008 12 301 22.5 25.7 0.00 0.00 0.00 45 1009.8
20260507165509 12 307 9.7 22.5 0.00 0.00 0.00 45 1009.8
20260507164508 11 296 19.3 25.7 0.00 0.00 0.00 46 1009.8
20260507164008 11 306 16.1 22.5 0.00 0.00 0.00 46 1009.8
20260507163508 11 303 12.9 27.4 0.00 0.00 0.00 46 1010.1
20260507163008 12 254 11.3 22.5 0.00 0.00 0.00 46 1009.8
20260507162507 13 325 14.5 22.5 0.00 0.00 0.00 44 1009.8
20260507162008 14 312 14.5 24.1 0.00 0.00 0.00 46 1009.8
20260507161508 13 328 24.1 24.1 0.00 0.00 0.00 49 1009.8
20260507161008 13 304 11.3 19.3 0.00 0.00 0.00 47 1009.8
20260507160508 13 289 9.7 19.3 0.00 0.00 0.00 47 1010.1
20260507160008 14 273 14.5 24.1 0.00 0.00 0.00 48 1009.8
20260507155007 13 261 20.9 25.7 0.00 0.00 0.00 47 1009.8
20260507154508 13 280 4.8 20.9 0.00 0.00 0.00 49 1010.1
20260507153509 13 210 16.1 25.7 0.00 0.00 0.00 48 1010.1
20260507153010 13 286 17.7 24.1 0.00 0.00 0.00 47 1010.1
20260507152508 13 290 14.5 16.1 0.00 0.00 0.00 51 1010.1
20260507152008 13 269 11.3 20.9 0.00 0.00 0.00 50 1010.1
20260507151509 13 254 14.5 19.3 0.00 0.00 0.00 51 1010.1
20260507150010 12 282 12.9 25.7 0.00 0.00 0.00 53 1009.8
20260507145008 12 237 6.4 33.8 0.00 0.00 0.00 53 1009.8
20260507144508 12 82 8.0 17.7 0.00 0.00 0.00 52 1010.1
20260507144008 12 250 11.3 22.5 0.00 0.00 0.00 52 1009.8
20260507143508 12 276 20.9 27.4 0.00 0.00 0.00 53 1010.1
20260507143009 12 214 14.5 30.6 0.00 0.00 0.00 53 1010.1
20260507142508 12 203 4.8 19.3 0.00 0.00 0.00 54 1009.8
20260507142007 12 227 11.3 17.7 0.00 0.00 0.00 53 1010.1
20260507141508 12 167 11.3 17.7 0.00 0.00 0.00 54 1010.1
20260507141008 11 230 6.4 17.7 0.00 0.00 0.00 55 1010.1
20260507140508 11 260 16.1 19.3 0.00 0.00 0.00 55 1010.1
20260507140008 11 332 12.9 17.7 0.00 0.00 0.00 54 1010.1
20260507135508 11 247 17.7 20.9 0.00 0.00 0.00 58 1010.1
20260507135008 11 259 19.3 20.9 0.00 0.00 0.00 57 1010.1
20260507134508 11 273 22.5 24.1 0.00 0.00 0.00 57 1010.1
20260507134008 10 233 11.3 27.4 0.00 0.00 0.00 59 1010.1
20260507133508 10 261 14.5 19.3 0.00 0.00 0.00 58 1010.1
20260507133009 10 289 17.7 24.1 0.00 0.00 0.00 59 1010.1
20260507132508 10 256 12.9 22.5 0.00 0.00 0.00 58 1010.1
20260507132008 10 267 22.5 22.5 0.00 0.00 0.00 60 1010.1
20260507131507 10 260 4.8 19.3 0.00 0.00 0.00 60 1010.1
20260507131008 9 238 16.1 20.9 0.00 0.00 0.00 61 1010.4
20260507130508 9 209 17.7 20.9 0.00 0.00 0.00 62 1010.4
20260507130010 8 333 16.1 16.1 0.00 0.00 0.00 63 1010.1
20260507125508 8 267 6.4 19.3 0.00 0.00 0.00 64 1010.4
20260507125008 8 156 12.9 20.9 0.00 0.00 0.00 65 1010.4
20260507124508 8 238 16.1 24.1 0.00 0.00 0.00 65 1010.4
20260507124008 8 244 12.9 17.7 0.00 0.00 0.00 66 1010.1